World > North America > United States > Texas > Somerville   City of Somerville, Texas

Somerville, TX Hourly Weather Updates

Feedback E-mail the Weather

Quick Clicks

Somerville, TX Weather Maps

°F °C°F °C
Somerville Weather Map
UTC Time: 6/21/2024, 06:43
Your Time:

Somerville, TX Regional Weather

Expires:202406210700;;390475
ASUS44 KSJT 210610
RWRSJT
WEST CENTRAL TEXAS REGIONAL WEATHER ROUNDUP
NATIONAL WEATHER SERVICE SAN ANGELO TX
100 AM CDT FRI JUN 21 2024

NOTE: "FAIR" INDICATES FEW OR NO CLOUDS BELOW 12,000 FEET WITH NO
SIGNIFICANT WEATHER AND/OR OBSTRUCTIONS TO VISIBILITY.


TXZ163-177-195>197-199-213-226-237-210700-
SOUTHEAST TEXAS
  
CITY           SKY/WX    TMP DP  RH WIND       PRES   REMARKS
COLLEGE STN    CLEAR     80  74  81 E8        30.13R TC  27           
CALDWELL       CLEAR     76  74  92 CALM      30.14R TC  25           
CROCKETT       PTCLDY    75  75 100 CALM      30.14S TC  24           
BRENHAM        PTCLDY    78  75  90 E3        30.12S TC  26           
HUNTSVILLE     CLEAR     77  74  90 E5        30.13S TC  25           
CONROE         CLEAR     76  73  91 SE3       30.13S TC  24           
HOUSTON BUSH   PTCLDY    78  75  90 NE8       30.11S TC  26           
HOUSTON HOBBY  PTCLDY    82  76  81 E8        30.10R TC  28           
PERLAND        CLEAR     81  76  84 E8        30.11S TC  27           
WHARTON        CLEAR     78  76  94 E5        30.11R TC  26           
$$


SKY/WX - Weather  TMP - Temperature  DP - Dew Point  RH - Humidity
WIND - Wind Direction/Speed PRES - Barometric Pressure VSB - Visibility
WCI - Wind Chill Index E13G22 Wind - East Wind 13 mph/Gusts of 22 mph

Trending Headlines

Trending Entertainment Headlines

Somerville Radar Loop

Use the map search tool if you want to place a location marker on the radar map...

Somerville Quick Facts

National Two Day Weather Forecast


E-mail the Somerville Weather Forecast

Voice your opinion or tell us about page issues...